Lid_Strength_Index
4 4 4 3 3 3 3 2 2 2 2 2 1 1 1 1 1 1 1 1 1 1 1 1 0 0 -0 -0 -0 -0 -0 0 0
4 4 4 3 3 3 3 2 2 2 2 2 2 1 1 1 1 1 1 1 0 1 0 0 0 0 0 0 -0 -0 -0 0 1
4 4 3 3 3 3 2 2 2 2 2 2 2 1 1 1 1 1 1 1 1 1 0 0 -0 0 0 0 0 0 0 0 0
4 4 4 3 3 3 2 2 2 2 2 2 2 1 1 1 1 1 1 1 1 0 0 0 0 0 0 0 0 0 0 1 1
3 3 3 3 3 3 3 2 2 2 2 2 2 1 1 1 1 1 1 1 1 0 1 0 0 0 0 1 0 0 1 1 1
4 3 3 3 3 3 3 3 2 2 2 2 1 1 1 1 1 1 1 1 1 1 1 1 0 0 1 1 1 1 1 1 1
3 4 3 3 3 3 3 2 2 2 2 1 1 1 2 2 2 1 1 1 1 1 1 1 1 1 1 1 1 1 1 1 1
4 4 3 3 3 3 3 3 2 2 2 2 1 2 2 2 1 1 1 1 1 1 1 1 1 1 1 1 1 1 1 1 1
4 4 3 2 1 1 2 2 3 2 2 2 1 2 2 2 2 1 1 1 1 1 1 1 1 1 1 1 1 3 4 1 1
3 4 2 2 1 1 1 2 1 2 2 1 2 2 2 2 2 2 2 1 1 2 1 1 1 1 1 1 1 5 6 4 1
3 2 2 1 2 2 1 1 2 1 2 2 2 2 2 2 2 2 2 2 2 2 1 2 2 1 1 1 1 6 7 6 1
2 2 2 2 2 2 1 1 1 2 2 2 2 2 2 2 2 2 2 2 2 2 2 2 2 1 1 1 1 7 8 7 1
3 3 3 3 2 2 2 2 1 2 2 2 3 2 2 2 2 2 2 2 2 1 1 2 1 2 1 2 1 6 9 8 1
3 3 3 2 2 2 2 1 1 2 2 2 2 2 2 2 1 2 2 2 2 2 2 2 2 2 1 1 1 1 10 11 1
3 3 3 2 3 2 2 1 2 2 2 1 0 1 2 2 2 2 2 2 2 2 2 2 2 2 2 1 1 6 8 12 10
3 3 3 3 3 2 2 2 1 2 2 1 1 1 2 2 2 2 1 2 2 2 2 2 3 3 3 2 2 1 9 11 12
3 3 3 3 3 3 3 0 0 1 1 1 2 2 2 2 2 2 2 2 2 2 2 3 3 3 3 3 2 2 1 4 7
3 3 3 3 3 3 3 2 2 1 1 1 2 2 2 2 2 2 2 2 2 2 2 2 2 2 2 3 3 2 7 5 2
3 3 3 4 3 3 2 2 2 2 1 1 2 2 2 2 2 2 2 2 2 15 14 15 16 15 8 4 13 16 15 12 12
3 3 3 3 3 2 2 2 2 1 1 1 2 2 2 2 3 2 3 3 3 3 12 17 17 17 17 17 17 18 17 19 18